x

8413320 - Bar Harbor, Me (atgm1) Weather Station

5:54am - Fri 6th Mar 2015 All times are EST. -5 hours from GMT.

  • Wind
    7mph, 10mph gusts
  • Sea Temp 29°f
  • 空気 Temp 5°f
  • Sea Pressure 1029.5mb
  • 8413320 - Bar Harbor, Me
  • 8413320 - Bar Harbor, Me

More Historic Weather Station data

Upgrade to MSW Pro to gain access to the past 30 days of data for over 8000 Wavebouys and Weather Stations around the globe.

Join Pro

Comparision Forecast

View Surf forecast
   
Fri 03/06 5:54am 7 10 mph 1029.5mb 29f 5f
5:48am 8 10 mph 1029.5mb 29f 5f
5:42am 6 9 mph 1029.4mb 29f 5f
5:36am 7 9 mph 1029.3mb 29f 4f
5:30am 7 9 mph 1029.3mb 29f 4f
5:24am 8 10 mph 1029.2mb 29f 5f
5:18am 8 10 mph 1029.2mb 29f 5f
5:12am 8 10 mph 1029.3mb 29f 5f
5:06am 8 10 mph 1029.1mb 29f 5f
5:00am 8 10 mph 1029.1mb 29f 5f
4:54am 8 10 mph 1029mb 29f 5f
4:48am  -  mph 1028.9mb 29f -
4:42am  -  mph 1028.7mb 29f -
4:36am  -  mph 1028.7mb 29f -
4:30am 10 13 mph 1028.6mb 29f 6f
4:24am 10 14 mph 1028.4mb 29f 6f
4:18am 9 14 mph 1028.4mb 29f 5f
4:12am 8 11 mph 1028.3mb 29f 6f
4:06am 9 13 mph 1028.2mb 29f 6f
4:00am 7 11 mph 1028.2mb 29f 6f
3:54am 6 9 mph 1028.2mb 29f 6f
3:48am  -  mph 1028mb 29f 6f
3:42am  -  mph 1027.9mb 29f 6f
3:36am  -  mph 1027.8mb 29f 6f
3:30am 6 11 mph 1027.8mb 29f 6f
3:24am 7 10 mph 1027.6mb 29f 6f
3:18am 9 11 mph 1027.5mb 29f 7f
3:12am 8 13 mph 1027.5mb 29f 7f
3:06am 9 14 mph 1027.4mb 29f 8f
3:00am 10 14 mph 1027.2mb 29f 8f
2:54am 11 15 mph 1027.2mb 29f 8f
2:48am 10 14 mph 1027.1mb 29f 8f
2:42am 11 14 mph 1027mb 29f 8f
2:36am 9 13 mph 1026.9mb 29f 8f
2:30am 9 13 mph 1026.9mb 29f 7f
2:24am 9 13 mph 1026.8mb 29f 8f
2:18am 10 14 mph 1026.8mb 29f 8f
2:12am 11 14 mph 1026.7mb 29f 8f
2:06am 11 14 mph 1026.7mb 29f 8f
2:00am  -  mph 1026.6mb - -
1:54am  -  mph 1026.6mb - -
1:48am 13 17 mph 1026.5mb 29f -
1:42am 13 16 mph 1026.4mb 29f -
1:36am 13 17 mph 1026.4mb 29f -
1:30am 13 18 mph 1026.4mb 29f 10f
1:24am 14 17 mph 1026.4mb 29f 10f
1:18am 16 18 mph 1026.3mb 29f 10f
1:12am 14 17 mph 1026.2mb 29f 10f
1:06am 14 18 mph 1026.2mb 29f 10f
1:00am 15 18 mph 1026.2mb 29f 11f
12:54am 14 17 mph 1026.2mb 29f 11f
12:48am 13 18 mph 1026.1mb 29f 11f
12:42am 15 21 mph 1026.1mb 29f 11f
12:36am 14 21 mph 1026.1mb 29f 11f
12:30am 15 20 mph 1026mb 29f 11f
12:24am 14 18 mph 1025.9mb 29f 11f
12:18am 15 22 mph 1025.8mb 29f 12f
12:12am 14 17 mph 1025.6mb 29f 12f
12:00am 11 21 mph 1025.2mb 29f 12f
Thu 03/05 11:54pm 14 23 mph 1025.1mb 29f 12f
11:48pm 14 22 mph 1025.2mb 29f 12f
11:42pm 16 24 mph 1025.6mb 29f 12f
11:36pm 14 20 mph 1025.4mb 29f 12f
11:30pm 15 20 mph 1025.2mb 29f 13f
11:24pm 14 23 mph 1025.1mb 29f 13f
11:18pm 11 21 mph 1025mb 29f 13f
11:12pm 15 22 mph 1024.8mb 29f 13f
11:00pm 15 20 mph 1024.6mb 29f 13f
10:54pm 14 18 mph 1024.5mb 29f 13f
10:48pm 14 25 mph 1024.7mb 29f 14f
10:42pm 15 21 mph 1024.5mb 29f 14f
10:30pm 17 23 mph 1024mb 29f 14f
10:24pm 15 23 mph 1024mb 29f 14f
10:18pm 15 23 mph 1023.8mb 29f 15f
10:12pm 14 23 mph 1023.8mb 29f 15f
10:06pm 15 23 mph 1023.7mb 29f 15f
10:00pm 15 25 mph 1023.7mb 29f 15f
9:54pm 16 23 mph 1023.5mb 30f 15f
9:48pm 15 21 mph 1023.4mb 30f 15f
9:42pm 17 22 mph 1023.4mb 30f 15f
9:36pm 16 22 mph 1023.3mb 30f 16f
9:30pm 17 22 mph 1023.4mb 30f 16f
9:24pm 15 21 mph 1023.2mb 30f 15f
9:18pm 16 21 mph 1023.2mb 30f 16f
9:12pm 14 23 mph 1022.8mb 30f 16f
9:06pm 14 17 mph 1022.7mb 30f 16f
9:00pm 16 22 mph 1022.8mb 30f 17f
8:54pm 16 23 mph 1022.7mb 30f 16f
8:48pm 16 21 mph 1022.6mb 30f 16f
8:42pm 14 20 mph 1022.6mb 30f 16f
8:36pm 17 21 mph 1022.3mb 30f 16f
8:30pm 15 21 mph 1022.2mb 30f 16f
8:18pm 16 21 mph 1022mb 30f 17f
8:12pm 17 22 mph 1021.9mb 30f 17f
8:06pm 16 17 mph 1021.5mb 30f 16f
8:00pm 14 17 mph 1021.4mb 30f 17f
7:48pm 14 21 mph 1021.3mb 30f 17f
7:42pm 14 20 mph 1021mb 30f 17f
7:36pm 16 20 mph 1021.1mb 30f 17f
7:24pm 15 18 mph 1020.6mb 30f 16f
7:18pm 16 21 mph 1020.5mb 30f 17f
7:12pm 16 20 mph 1020.6mb 30f 16f
7:06pm 14 18 mph 1020.7mb 30f 17f
7:00pm 15 17 mph 1020.8mb 30f 17f
6:54pm 15 20 mph 1020.5mb 30f 16f
6:48pm 15 20 mph 1020.5mb 30f 16f
6:42pm 15 20 mph 1020.1mb 30f 17f
6:36pm 16 20 mph 1020.5mb 30f 16f
6:30pm 15 20 mph 1020.4mb 30f 17f
6:24pm 16 21 mph 1020.2mb 30f 17f
6:18pm 17 20 mph 1019.8mb 30f 17f
6:12pm 15 21 mph 1019.9mb 30f 16f
6:06pm 17 21 mph 1019.8mb 30f 16f
6:00pm 17 22 mph 1019.6mb 30f 17f
5:54pm 16 20 mph 1019.7mb 30f 17f
5:48pm 14 20 mph 1019.5mb 30f 17f
5:42pm 15 22 mph 1019.6mb 30f 17f
5:36pm 17 20 mph 1019.6mb 30f 17f
5:30pm 15 22 mph 1019.5mb 30f 17f
5:24pm 18 22 mph 1018.9mb 30f 17f
5:18pm 22 25 mph 1018.9mb 30f 17f
5:12pm 18 22 mph 1019mb 30f 17f
5:06pm 18 23 mph 1018.8mb 30f 17f
5:00pm 18 25 mph 1018.3mb 30f 17f
4:54pm 18 24 mph 1018.5mb 30f 17f
4:48pm 20 24 mph 1018.7mb 30f 17f
4:42pm 21 24 mph 1018.5mb 30f 17f
4:36pm 17 25 mph 1018.8mb 30f 18f
4:30pm 20 26 mph 1018.9mb 30f 18f
4:24pm 18 24 mph 1018.8mb 30f 18f
4:18pm 15 23 mph 1018.7mb 30f 18f
4:12pm 16 24 mph 1018.9mb 30f 18f
4:06pm 20 23 mph 1018.9mb 30f 18f
4:00pm 16 24 mph 1018.8mb 30f 18f
3:54pm 20 23 mph 1018.5mb 30f 19f
3:48pm 17 23 mph 1018.5mb 30f 19f
3:42pm 18 21 mph 1018.2mb 30f 19f
3:36pm 20 26 mph 1018.1mb 30f 19f
3:30pm 18 24 mph 1018.1mb 30f 19f
3:24pm 17 31 mph 1018.3mb 30f 19f
3:18pm 22 26 mph 1018mb 30f 19f
3:12pm 22 25 mph 1018.2mb 30f 19f
3:06pm 18 23 mph 1017.9mb 30f 19f
3:00pm 18 25 mph 1017.4mb 30f 19f
2:54pm 22 25 mph 1017.1mb 30f 20f
2:48pm 22 24 mph 1017.1mb 30f 20f
2:42pm 21 24 mph 1017.2mb 30f 20f
2:36pm 17 24 mph 1017.4mb 30f 20f
2:30pm 20 29 mph 1017.5mb 30f 20f
2:24pm 23 29 mph 1017.3mb 30f 20f
2:18pm 24 28 mph 1017mb 30f 20f
2:12pm 21 25 mph 1017mb 30f 21f
2:06pm 20 25 mph 1016.6mb 30f 21f
2:00pm 17 25 mph 1016.5mb 30f 21f
1:54pm 20 24 mph 1016.6mb 30f 22f
1:48pm 22 28 mph 1016.5mb 30f 22f
1:42pm 23 28 mph 1016.3mb 30f 22f
1:36pm 22 29 mph 1016.4mb 30f 22f
1:30pm 23 26 mph 1016.2mb 30f 22f
1:24pm 17 23 mph 1016.2mb 31f 22f
1:18pm 18 21 mph 1016.2mb 30f 22f
1:12pm 20 25 mph 1016.3mb 31f 22f
1:06pm 18 26 mph 1016.5mb 31f 22f
1:00pm 18 25 mph 1016.1mb 31f 23f
12:54pm 20 24 mph 1015.8mb 31f 23f
12:48pm 18 25 mph 1015.8mb 31f 23f
12:42pm 22 25 mph 1016mb 31f 23f
12:36pm 22 26 mph 1016.2mb 30f 22f
12:30pm 22 28 mph 1016.3mb 31f 23f
12:24pm 24 28 mph 1016.4mb 30f 23f
12:18pm 21 29 mph 1016mb 30f 23f
12:12pm 25 30 mph 1016.3mb 30f 23f
12:06pm 25 30 mph 1016.4mb 30f 23f
12:00pm 24 31 mph 1016mb 30f 23f
11:54am 25 30 mph 1016.4mb 30f 23f
11:48am 20 28 mph 1016mb 30f 24f
11:42am 23 29 mph 1016.3mb 31f 24f
11:36am 22 28 mph 1016.5mb 31f 24f
11:30am 20 23 mph 1016.6mb 31f 24f
11:24am 20 23 mph 1016.6mb 31f 24f
11:18am 20 24 mph 1016.4mb 31f 24f
11:12am 20 24 mph 1016.4mb 31f 24f
11:06am 18 22 mph 1016.4mb 31f 24f
11:00am 17 24 mph 1016.2mb 31f 24f
10:54am 17 22 mph 1016.3mb 31f 24f
10:48am 13 18 mph 1016.1mb 30f 24f
10:42am 16 21 mph 1016.2mb 30f 23f
10:36am 17 23 mph 1016.5mb 30f 23f
10:30am 21 25 mph 1016.2mb 30f 23f
10:24am 22 28 mph 1016.2mb 30f 24f
10:18am 21 26 mph 1015.8mb 31f 24f
10:12am 18 23 mph 1015.6mb 31f 24f
10:06am 16 21 mph 1015.3mb 30f 23f
10:00am 16 21 mph 1015.3mb 30f 23f
9:54am 18 25 mph 1015.8mb 30f 23f
9:48am 17 24 mph 1016mb 30f 24f
9:42am 20 23 mph 1015.7mb 30f 23f
9:36am 18 25 mph 1015.9mb 30f 23f
9:30am 18 25 mph 1016.2mb 30f 24f
9:24am 17 25 mph 1015.7mb 31f 24f
9:18am 22 25 mph 1015.9mb 31f 24f
9:12am 22 29 mph 1015.9mb 31f 24f
9:06am 23 29 mph 1015.9mb 31f 24f
9:00am 22 29 mph 1015.7mb 31f 24f
8:54am 18 24 mph 1015.3mb 31f 24f
8:48am 21 29 mph 1015mb 31f 24f
8:42am 18 24 mph 1014.9mb 31f 25f
8:36am 20 23 mph 1015.1mb 31f 25f
8:30am 18 23 mph 1014.6mb 31f 25f
8:24am 18 25 mph 1014.4mb 31f 25f
8:18am 22 25 mph 1014.3mb 31f 25f
8:12am 16 24 mph 1014.4mb 31f 26f
8:06am 20 26 mph 1014.2mb 31f 26f
8:00am 21 25 mph 1014.1mb 31f 26f
7:54am 21 26 mph 1013.9mb 31f 27f
7:48am 17 24 mph 1013.6mb 31f 28f
7:42am 18 23 mph 1013.6mb 31f 28f
7:36am 17 23 mph 1013.2mb 31f 28f
7:30am 16 20 mph 1013.1mb 31f 29f
7:24am 15 18 mph 1012.9mb 31f 29f
7:18am 16 22 mph 1012.9mb 31f 29f
7:12am 18 24 mph 1012.9mb 31f 29f
7:06am 17 22 mph 1012.6mb 31f 29f
7:00am 16 22 mph 1012.1mb 31f 31f
6:54am 16 22 mph 1012mb 31f 31f
6:48am 16 23 mph 1011.9mb 31f 31f
6:42am 17 24 mph 1011.7mb 31f 31f
6:36am 17 22 mph 1011.4mb 31f 31f
6:30am 17 24 mph 1011.2mb 31f 31f
6:24am 14 23 mph 1011mb 31f 31f
6:18am 15 21 mph 1011mb 31f 31f
6:12am 16 22 mph 1010.7mb 31f 32f
6:06am 15 18 mph 1010.2mb 31f 32f
6:00am 16 22 mph 1010.1mb 31f 32f
5:54am 14 20 mph 1010.3mb 31f 32f
5:48am 16 20 mph 1010.6mb 31f 32f
5:42am 17 21 mph 1010.8mb 31f 32f
5:36am 18 23 mph 1010.7mb 31f 32f
5:30am 17 21 mph 1010.5mb 31f 33f
5:24am 14 21 mph 1010.5mb 31f 33f
5:18am 11 16 mph 1010.3mb 31f 33f
5:12am 13 15 mph 1010.2mb 31f 33f
5:06am 15 18 mph 1010mb 31f 33f
5:00am 15 21 mph 1009.9mb - 33f
4:54am 17 22 mph 1009.8mb - 34f
4:48am  -  mph 1009.4mb - -
4:42am  -  mph 1009.4mb - -
4:36am  -  mph 1009.1mb - -
4:30am 15 21 mph 1008.9mb 31f 34f
4:24am 15 18 mph 1008.9mb 31f 34f
4:18am 13 16 mph 1008.7mb 31f 34f
4:12am 14 16 mph 1008.6mb 31f 34f
4:06am 13 17 mph 1008.5mb 31f 34f
4:00am 11 16 mph 1008.4mb 31f 34f
3:54am 14 20 mph 1008.2mb 31f 34f
3:48am 14 18 mph - 31f 34f
3:42am 14 16 mph - 31f 34f
3:36am 15 21 mph - 31f 34f
3:30am 17 22 mph 1008.2mb 31f 34f
3:24am 14 17 mph 1008mb 31f 34f
3:18am 11 17 mph 1007.6mb 31f 34f
3:12am 13 16 mph 1007.6mb 31f 34f
3:06am 13 16 mph 1007.5mb 31f 34f
3:00am 15 20 mph 1007.8mb 31f 34f
2:54am 13 16 mph 1007.3mb 31f 34f
2:48am 14 17 mph 1007.2mb 31f 34f
2:42am 14 16 mph 1007.5mb 31f 35f
2:36am 11 15 mph 1007.4mb 31f 35f
2:30am 11 16 mph 1007.4mb 31f 35f
2:24am 13 17 mph 1007.4mb 31f 34f
2:18am 14 20 mph 1007.4mb - 35f
2:12am 16 20 mph 1007.4mb - 35f
2:06am 16 21 mph 1007.6mb - 35f
2:00am 13 16 mph - 31f 35f
1:54am 14 16 mph - 31f 35f
1:48am 8 11 mph 1007.6mb 31f 35f
1:42am 8 10 mph 1007.8mb 31f 35f
1:36am 9 10 mph 1007.5mb 31f 35f
1:30am 9 13 mph 1007.6mb 31f 35f
1:24am 9 13 mph 1007.1mb 31f 35f
1:18am 10 11 mph 1006.9mb 31f 35f
1:12am 10
mph
1006.5mb 31f 35f
1:06am 8 9 mph 1006mb 31f 35f
1:00am 6 8 mph 1006mb 31f 36f
12:54am 6 9 mph 1005.9mb 31f 36f
12:48am 6 8 mph 1006.1mb 31f 36f
12:42am 6 9 mph 1006.3mb 31f 36f
12:36am 7 10 mph 1006.4mb 31f 37f
12:30am 9 11 mph 1006.8mb 31f 37f
12:24am 8 14 mph 1006.9mb 31f 37f
12:18am 10 14 mph 1007.1mb 31f 37f
12:12am 9 14 mph 1007mb 31f 37f
12:06am 7 9 mph 1006.7mb 31f 37f
12:00am 6 9 mph 1006.8mb 31f 37f
Wed 03/04 11:54pm 6 9 mph 1006.6mb 31f 36f
11:48pm 6 8 mph 1006.4mb 31f 36f
11:42pm 6 9 mph 1006.4mb 31f 37f
11:36pm 7 10 mph 1006.4mb 31f 36f
11:30pm 8 10 mph 1006.2mb 31f 36f
11:24pm 8 11 mph 1006.4mb 31f 36f
11:18pm 9 13 mph 1006.6mb 31f 36f
11:12pm 9 10 mph 1006.4mb 31f 37f
11:06pm 7 10 mph 1006.5mb 31f 37f
11:00pm 8 13 mph 1006.5mb 31f 37f
10:54pm 9 13 mph 1006.2mb 31f 37f
10:48pm 9 15 mph 1006mb 31f 37f
10:42pm 10 14 mph 1005.8mb 31f 37f
10:36pm 10 14 mph 1005.6mb 31f 37f
10:30pm 9 13 mph 1005.4mb 31f 38f
10:24pm 7 10 mph 1005.4mb 31f 37f
10:18pm 7 10 mph 1005.2mb 31f 37f
10:12pm 7 10 mph 1005.2mb 31f 37f
10:06pm 5 7 mph 1005.3mb 31f 37f
10:00pm 3 6 mph 1005.4mb 31f 35f
9:54pm 3 5 mph 1005.5mb 31f 35f
9:48pm 5 7 mph 1005.6mb 31f 35f
9:42pm 6 7 mph 1005.9mb 31f 35f
9:36pm 5 8 mph 1006.2mb 31f 37f
9:30pm 7 11 mph 1006.6mb 31f 37f
9:24pm 7 13 mph 1006.4mb 31f 37f
9:18pm 7 14 mph 1006.4mb 31f 38f
9:12pm 8 14 mph 1006.2mb 31f 38f
9:06pm 8 13 mph 1006.2mb 31f 38f
9:00pm 7 11 mph 1006mb 31f 38f
8:54pm 7 11 mph 1005.9mb 31f 38f
8:48pm 8 11 mph 1005.8mb 31f 39f
8:42pm 5 6 mph 1005.4mb 31f 39f
8:36pm 5 7 mph 1005.4mb 31f 38f
8:30pm 5 7 mph 1005.7mb 31f 39f
8:24pm 5 6 mph 1005.1mb 31f 39f
8:18pm 5 7 mph 1005.1mb 31f 39f
8:12pm 5 8 mph 1005.1mb 31f 40f
8:06pm 5 7 mph 1005.4mb 31f 40f
8:00pm 5 9 mph 1005.5mb 31f 40f
7:54pm 7 11 mph 1005.5mb 31f 40f
7:48pm 8 13 mph 1005.5mb 31f 40f
7:42pm 6 9 mph 1005.4mb 31f 40f
7:36pm 6 10 mph 1005.6mb 31f 40f
7:30pm 6 11 mph 1005.6mb 31f 40f
7:24pm 9 14 mph 1005.8mb 31f 40f
7:18pm 6 11 mph 1005.8mb 31f 40f
7:12pm 6 9 mph 1005.7mb 31f 40f
7:06pm 6 8 mph 1005.6mb 31f 40f
7:00pm 7 8 mph 1005.5mb 31f 40f
6:54pm 6 8 mph 1005.4mb 31f 40f
6:48pm 5 8 mph 1005.5mb 31f 40f
6:42pm 6 9 mph 1005.3mb 31f 40f
6:36pm 7 10 mph 1005.2mb 31f 40f
6:30pm 6 9 mph 1005.1mb 31f 40f
6:24pm 6 10 mph 1005.1mb 31f 39f
6:18pm 8 14 mph 1005.1mb 31f 40f
6:12pm 7 11 mph 1005mb 31f 39f
6:06pm 7 11 mph 1004.8mb 31f 39f
6:00pm 7 10 mph 1005mb 31f 39f
5:54pm 8 10 mph 1005mb 31f 39f
5:48pm 6 9 mph 1005mb 31f 39f
5:42pm 6 10 mph 1005.1mb 31f 38f
5:36pm 5 8 mph 1005.2mb 31f 39f
5:30pm 6 8 mph 1005.2mb 31f 38f
5:24pm 6 9 mph 1005mb 31f 38f
5:18pm 7 10 mph 1004.8mb 31f 38f
5:12pm 7 13 mph 1005mb 31f 38f
5:06pm 8 13 mph 1005.1mb 31f 38f
4:54pm 9 17 mph 1005.1mb 31f 38f
4:48pm 9 15 mph 1004.7mb 31f 38f
4:42pm 7 15 mph 1004.7mb 31f 38f
4:36pm 11 15 mph 1004.6mb 31f 39f
4:30pm 8 14 mph 1004.5mb 31f 39f
4:24pm 8 15 mph 1004.3mb 31f 40f
4:18pm 9 15 mph 1004.1mb 31f 40f
4:12pm 6 10 mph 1004.2mb 31f 41f
4:06pm 5 9 mph 1003.9mb 31f 41f
4:00pm 8 10 mph 1004.2mb 31f 41f
3:54pm 6 10 mph 1003.8mb 31f 41f
3:48pm 8 11 mph 1003.6mb 31f 41f
3:42pm 8 14 mph 1003.6mb 31f 41f
3:36pm 13 15 mph 1003.6mb 31f 41f
3:30pm 8 11 mph 1003.5mb 31f 41f
3:24pm 6 14 mph 1003.6mb 31f 42f
3:18pm 7 9 mph 1003.5mb 31f 41f
3:12pm 6 11 mph 1003.4mb 31f 42f
3:06pm 11 13 mph 1003.3mb 31f 41f
3:00pm 6 16 mph 1003.5mb 31f 41f
2:54pm 11 17 mph 1003.7mb 31f 41f
2:48pm 10 20 mph 1003.7mb 31f 41f
2:42pm 11 16 mph 1003.7mb 31f 41f
2:36pm 13 20 mph 1003.8mb 31f 41f
2:30pm 11 20 mph 1003.9mb 31f 41f
2:24pm 14 25 mph 1004mb 31f 41f
2:18pm 13 24 mph 1003.9mb 31f 41f
2:12pm 16 23 mph 1003.8mb 31f 40f
2:06pm 11 21 mph 1003.7mb 31f 41f
2:00pm 11 24 mph 1003.6mb 31f 40f
1:54pm 17 24 mph 1004mb 31f 40f
1:48pm 16 21 mph 1003.8mb 31f 40f
1:42pm 9 20 mph 1003.9mb 31f 40f
1:36pm 16 26 mph 1003.7mb 31f 40f
1:30pm 10 20 mph 1003.8mb 31f 40f
1:24pm 10 16 mph 1003.8mb 31f 39f
1:18pm 14 24 mph 1003.8mb 31f 39f
1:12pm 13 20 mph 1004mb 31f 39f
1:06pm 11 17 mph 1004mb 31f 39f
1:00pm 13 22 mph 1004.1mb 31f 38f
12:54pm 11 18 mph 1004.1mb 31f 39f
12:48pm 11 15 mph 1004.1mb 31f 39f
12:42pm 10 24 mph 1003.9mb 31f 38f
12:36pm 13 18 mph 1003.9mb 31f 38f
12:30pm 13 20 mph 1004mb 31f 38f
12:24pm 11 16 mph 1003.9mb 31f 38f
12:18pm 13 21 mph 1004.1mb 31f -
12:12pm 9 17 mph 1003.8mb 31f -
12:06pm 14 17 mph 1003.7mb 31f -
12:00pm 14 18 mph 1003.8mb 31f 38f
11:54am 11 18 mph 1003.7mb 31f 38f
11:48am 11 17 mph 1003.6mb 31f 38f
11:42am 15 22 mph 1003.5mb 31f 38f
11:36am 13 16 mph 1003.4mb 31f 38f
11:30am 15 21 mph 1003.4mb 31f 38f
11:24am 9 16 mph 1003.5mb 31f 38f
11:18am 10 18 mph 1003.6mb 31f 38f
11:12am 11 17 mph 1003.6mb 31f 37f
11:06am 9 17 mph 1003.2mb 31f 37f
11:00am 9 15 mph 1003.2mb 31f 37f
10:54am 13 17 mph 1003.2mb 31f 37f
10:48am 9 15 mph 1003.2mb 31f 37f
10:42am 13 22 mph 1003.2mb 31f 37f
10:36am 9 15 mph 1003.1mb 31f 36f
10:30am 10 17 mph 1003.3mb 31f 36f
10:24am 13 16 mph 1003.1mb 31f 36f
10:18am 10 18 mph 1003.1mb 31f 36f
10:06am 11 17 mph 1003.2mb 31f 36f
10:00am 9 15 mph 1003.2mb 31f 36f
9:54am 13 20 mph 1003.6mb 30f 36f
9:48am 10 14 mph 1003.4mb 31f 36f
9:42am 11 16 mph 1003.3mb 31f 36f
9:36am 11 18 mph 1003.5mb 31f 35f
9:30am 11 15 mph 1003.3mb 31f 35f
9:24am 11 17 mph 1003.4mb 31f 35f
9:18am 10 15 mph 1003.4mb 31f 35f
9:12am 15 20 mph 1003.4mb 31f 35f
9:06am 13 16 mph 1003.3mb 31f 35f
9:00am 10 15 mph 1003.4mb 31f 35f
8:54am 9 14 mph 1003.3mb 31f 35f
8:48am 9 16 mph 1003.4mb 30f 35f
8:42am 13 17 mph 1003.3mb 31f 35f
8:36am 10 15 mph 1003.3mb 31f 35f
8:30am 10 18 mph 1003.2mb 31f 35f
8:24am 14 18 mph 1003.3mb 31f 35f
8:18am 15 23 mph 1003.4mb 31f 34f
8:12am 15 20 mph 1003.6mb 30f 34f
8:06am 15 23 mph 1003.1mb 30f 34f
8:00am 11 21 mph 1002.8mb 30f 34f
7:48am 10 17 mph 1002.6mb 30f 34f
7:42am 11 22 mph 1002.4mb 30f 35f
7:36am 13 18 mph 1002.5mb 30f 35f
7:30am 13 16 mph 1002.3mb 30f 34f
7:24am 11 18 mph 1001.8mb 30f 34f
7:18am 14 20 mph 1001.6mb 30f 34f
7:12am 10 18 mph 1001.7mb 30f 35f
7:06am 14 21 mph 1001.8mb 30f 35f
7:00am 14 20 mph 1001.7mb 30f 35f
6:54am 14 23 mph 1001.6mb 30f 35f
6:48am 14 20 mph 1001.4mb 30f 35f
6:42am 10 17 mph 1000.9mb 30f 35f
6:36am 13 17 mph 1001mb 30f 35f
6:30am 11 16 mph 1000.7mb 30f 35f
6:24am 11 18 mph 1000.3mb 30f 35f
6:18am 9 17 mph 1000.3mb 30f 35f
6:12am 14 20 mph 1000.1mb 30f 35f
6:06am 14 17 mph 1000.7mb 30f 35f
6:00am 11 18 mph 1000.6mb 30f 35f
5:54am 10 15 mph 1000.3mb 30f 35f
5:48am 10 18 mph 1000.5mb 30f 35f
5:42am 9 18 mph 1000.5mb 30f 35f
5:36am 15 20 mph 1000.5mb 30f 35f
5:30am 11 15 mph 1000.4mb 30f 35f
5:24am 10 16 mph 1000.7mb 30f 35f
5:18am 10 18 mph 1001mb 30f 36f
5:12am 11 20 mph 1001.2mb 30f 36f
5:06am 13 20 mph 1001.1mb 30f 36f
5:00am 9 14 mph 1001.3mb 30f 36f
4:54am 8 15 mph 1001.4mb 30f 36f
4:48am 13 20 mph 1001.5mb 30f 35f
4:42am 11 17 mph 1001.7mb 30f 35f
4:36am 5 20 mph 1001.9mb 30f 35f
4:30am 7 14 mph 1001.9mb 30f 34f
4:24am 8 16 mph 1002mb 30f 34f
4:12am 7 14 mph 1002.5mb 30f 33f
4:06am 6 16 mph 1002.5mb 30f 33f
4:00am 7 18 mph 1002.7mb 30f 33f
3:54am 10 20 mph 1002.6mb 30f 33f
3:48am 9 18 mph 1002.7mb 30f 33f
3:42am 9 15 mph 1002.7mb 30f 33f
3:36am 9 18 mph 1003mb 30f 33f
3:30am 7 18 mph 1003.2mb 30f 33f
3:24am 8 17 mph 1003.3mb 30f 33f
3:18am 9 18 mph 1003.5mb 30f 33f
3:12am 10 25 mph 1003.5mb 30f 33f
3:06am 14 24 mph 1003.5mb 30f 33f
3:00am 11 24 mph 1003.9mb 30f 33f
2:54am 14 29 mph 1004mb 30f 33f
2:48am 15 23 mph 1004.2mb 30f 33f
2:42am 11 22 mph 1004.3mb 30f 33f
2:36am 11 24 mph 1004.5mb 30f 33f
2:30am 9 22 mph 1004.7mb 30f 33f
2:24am 14 25 mph 1004.8mb 30f 32f
2:18am 13 24 mph 1005.2mb 30f 32f
2:12am 15 28 mph 1005.5mb 30f 32f
2:06am 14 30 mph 1005.6mb 30f 31f
2:00am 15 23 mph 1006mb 30f 31f
1:54am 15 24 mph 1006.4mb 30f 31f
1:48am 15 28 mph 1006.5mb 30f 31f
1:42am 9 20 mph 1006.6mb 30f 31f
1:36am 13 26 mph 1006.8mb 30f 30f
1:30am 10 23 mph 1007mb 30f 30f
1:24am 9 18 mph 1007.4mb 30f 30f
1:18am 9 16 mph 1007.6mb 30f 30f
1:12am 10 21 mph 1008mb 30f 30f
1:06am 10 17 mph 1008.3mb 30f 29f
1:00am 9 21 mph 1008.5mb 30f 29f
12:54am 7 15 mph 1008.7mb 30f 29f
12:48am 11 24 mph 1008.6mb 30f 29f
12:42am 14 26 mph 1008.9mb 30f 29f
12:36am 6 23 mph 1009.2mb 30f 29f
12:30am 10 21 mph 1009.2mb 30f 29f
12:24am 8 23 mph 1009.8mb 30f 29f
12:18am 10 22 mph 1009.9mb 30f 28f
12:12am 14 28 mph 1010.1mb 30f 28f
12:06am 9 18 mph 1010.4mb 30f 28f
12:00am 14 24 mph 1010.5mb 30f 28f
Tue 03/03 11:54pm 11 23 mph 1010.9mb 30f 28f
11:48pm 9 23 mph 1011.2mb 30f 28f
11:42pm 8 21 mph 1011.3mb 30f 28f
11:36pm 11 25 mph 1011.5mb 30f 28f
11:30pm 11 21 mph 1011.8mb 30f 28f
11:24pm 8 17 mph 1012.2mb 30f 28f
11:18pm 9 24 mph 1012.4mb 30f 28f
11:12pm 11 21 mph 1012.5mb 30f 28f
11:06pm 13 23 mph 1013mb 30f 28f
11:00pm 14 25 mph 1013.2mb 30f 28f
10:54pm 13 21 mph 1013.4mb 30f 28f
10:48pm 14 25 mph 1013.7mb 30f 28f
10:42pm 15 22 mph 1014.2mb 30f 28f
10:36pm 11 22 mph 1014.5mb 30f 27f
10:30pm 10 20 mph 1014.7mb 30f 27f
10:24pm 7 14 mph 1015mb 30f 28f
10:18pm 9 23 mph 1015.4mb 30f 28f
10:12pm 7 22 mph 1015.4mb 30f 28f
10:06pm 9 17 mph 1015.5mb 30f 28f
10:00pm 9 24 mph 1015.5mb 30f 28f
9:54pm 11 18 mph 1015.5mb 30f 28f
9:48pm 10 16 mph 1015.7mb 30f 28f
9:42pm 10 22 mph 1015.8mb 30f 28f
9:36pm 10 21 mph 1016.2mb 30f 29f
9:30pm 7 17 mph 1016.3mb 30f 29f
9:24pm 8 15 mph 1016.5mb 30f 29f
9:18pm 6 14 mph 1016.7mb 30f 29f
9:12pm 10 18 mph 1017mb 30f 29f
9:06pm 8 18 mph 1017.3mb 30f 29f
9:00pm 13 20 mph 1017.5mb 30f 29f
8:54pm 9 16 mph 1017.7mb 30f 28f
8:48pm 10 20 mph 1017.6mb 30f 28f
8:42pm 9 15 mph 1017.7mb 30f 28f
8:36pm 6 20 mph 1017.8mb 30f 28f
8:30pm 8 21 mph 1017.9mb 30f 28f
8:24pm 6 13 mph 1018mb 30f 28f
8:18pm 6 14 mph 1018.2mb 30f 28f
8:12pm 9 16 mph 1018.5mb 30f 28f
8:06pm 2 9 mph 1018.8mb 30f 27f
8:00pm 6 8 mph 1019.1mb 30f 27f
7:54pm 8 14 mph 1019.2mb 30f 27f
7:48pm 5 7 mph 1019.5mb 30f 26f
7:42pm 5 8 mph 1019.6mb 30f 26f
7:36pm 3 6 mph 1019.6mb 30f 26f
7:30pm 5 7 mph 1019.8mb 30f 26f
7:24pm 2 6 mph 1019.9mb 30f 25f
7:18pm 3 5 mph 1020.2mb 30f 25f
7:12pm  -  7 mph 1020.3mb 30f 24f
7:06pm 1 3 mph 1020.6mb 30f 24f
7:00pm 2 3 mph 1020.7mb 30f 24f
6:54pm 1 2 mph 1020.8mb 30f 24f
6:48pm  -  2 mph 1021mb 30f 24f
6:42pm 1 2 mph 1021mb 30f 24f
6:36pm 1 5 mph 1021.2mb 30f 24f
6:30pm 3 5 mph 1021.3mb 30f 24f
6:24pm 2 5 mph 1021.4mb 30f 24f
6:18pm 1 5 mph 1021.3mb 30f 24f
6:12pm 3 6 mph 1021.5mb 30f 24f
6:06pm 5 7 mph 1021.6mb 30f 24f
6:00pm 5 8 mph 1021.7mb 30f 24f
5:54pm 5 7 mph 1021.7mb 30f 23f
5:48pm 5 7 mph 1021.6mb 30f 23f
5:42pm 5 9 mph 1021.6mb 30f 24f
5:36pm 5 7 mph 1021.8mb 30f 23f
5:30pm 5 6 mph 1021.8mb 30f 24f
5:24pm 2 3 mph 1021.9mb 30f 23f
5:18pm 2 5 mph 1022.1mb 30f 23f
5:12pm 2 5 mph 1022.1mb 30f 24f
5:06pm  -  6 mph 1022.2mb 30f 24f
5:00pm 2 6 mph 1022.3mb 30f 24f
4:54pm 2 6 mph 1022.4mb 30f 24f
4:48pm 2 6 mph 1022.7mb 30f 24f
4:36pm 6 9 mph 1022.7mb 30f 24f
4:30pm 6 7 mph 1022.8mb 30f 25f
4:24pm 5 6 mph 1022.9mb 30f 25f
4:18pm 3 8 mph 1023.2mb 30f 25f
4:12pm 7 9 mph 1023.3mb 30f 25f
4:06pm 6 9 mph 1023.4mb 30f 25f
4:00pm 6 9 mph 1023.3mb 30f 25f
3:54pm 3 7 mph 1023.4mb 29f 26f
3:48pm 6 10 mph 1023.4mb 29f 25f
3:42pm 6 9 mph 1023.4mb 29f 26f
3:36pm 6 7 mph 1023.5mb 29f 26f
3:30pm 6 7 mph 1023.4mb 29f 25f
3:24pm 6 11 mph 1023.6mb 29f 26f
3:18pm 7 9 mph 1023.8mb 29f 25f
3:12pm 7 11 mph 1024mb 29f 25f
3:06pm 8 10 mph 1023.9mb 29f 25f
3:00pm 6 11 mph 1023.9mb 29f 25f
2:54pm 10 11 mph 1024.1mb 29f 25f
2:48pm 5 9 mph 1024.2mb 29f 25f
2:36pm 7 13 mph 1024.2mb 29f 25f
2:30pm 7 11 mph 1024.4mb 29f 25f
2:24pm 8 14 mph 1024.4mb 29f 24f
2:18pm 11 14 mph 1024.5mb 29f 24f
2:12pm 7 14 mph 1024.4mb 29f 24f
2:00pm 10 14 mph 1024.4mb 29f 24f
1:54pm 10 14 mph 1024.5mb 29f 24f
1:48pm 7 14 mph 1024.6mb 29f 24f
1:42pm 3 9 mph 1024.7mb 29f 24f
1:36pm 7 15 mph 1024.7mb 29f 23f
1:24pm 8 15 mph 1025mb 29f 23f
1:18pm 11 15 mph 1024.9mb 29f 23f
1:12pm 9 18 mph 1025mb 29f 23f
1:06pm 14 17 mph 1025.2mb 29f 22f
1:00pm 9 17 mph 1025.4mb 29f 22f
12:48pm 10 16 mph 1025.5mb 29f 22f
12:42pm 9 14 mph 1025.4mb 29f 22f
12:36pm 11 16 mph 1025.6mb 29f 21f
12:30pm 13 20 mph 1025.7mb 29f 21f
12:24pm 14 17 mph 1025.8mb 29f 21f
12:18pm 13 20 mph 1025.7mb 29f 21f
12:12pm 11 16 mph 1025.7mb 29f 20f
12:06pm 13 18 mph 1025.8mb 29f 20f
12:00pm 11 17 mph 1025.9mb 29f 20f
11:54am 15 21 mph 1026.2mb 29f 20f
11:48am 11 16 mph 1026.3mb 29f 19f
11:42am 11 17 mph 1026.6mb 29f 20f
11:36am 10 16 mph 1026.6mb 29f 19f
11:30am 14 20 mph 1026.6mb 29f -
11:24am 15 22 mph 1026.4mb 29f -
11:18am 16 22 mph - - 18f
11:12am 14 16 mph - - 18f
11:06am 16 21 mph - - 18f
11:00am  -  mph 1026.6mb 29f 18f
10:54am  -  mph 1026.6mb 29f 18f
10:48am 15 20 mph - 29f 17f
10:42am 13 18 mph - 29f 18f
10:36am 16 20 mph - 29f 17f
10:30am 16 18 mph - 29f 17f
10:24am 13 23 mph - 29f 17f
10:18am  -  mph 1026.5mb 29f 17f
10:12am  -  mph 1026.6mb 29f 16f
10:06am  -  mph 1026.6mb 29f 17f
10:00am 13 16 mph - - 16f
9:54am 14 21 mph - - 16f
9:48am 16 21 mph - - -
9:42am 14 20 mph - - -
9:36am 17 22 mph - - -
9:30am  -  mph - - 16f
9:24am  -  mph - - 15f
9:18am 16 22 mph - 29f -
9:12am 18 23 mph - 29f -
9:06am 18 26 mph - 29f -
9:00am  -  mph 1026.8mb - 15f
8:54am  -  mph 1026.8mb - 15f
8:48am 16 21 mph - - 15f
8:42am 15 25 mph - - 15f
8:36am 17 26 mph - - 15f
8:30am  -  mph - 29f -
8:24am  -  mph - 29f -
8:18am 17 24 mph 1027mb - 14f
8:12am 15 22 mph 1027mb - 14f
8:06am 15 25 mph 1026.9mb - 14f
8:00am 15 23 mph - 29f -
7:54am 15 22 mph - 30f -
7:48am  -  mph 1026.9mb 29f -
7:42am  -  mph 1026.8mb 29f -
7:36am  -  mph 1026.6mb 29f -
7:30am  -  mph 1026.4mb - 13f
7:24am  -  mph 1026.3mb - 13f
7:18am  -  mph 1026.2mb - 13f
7:12am  -  mph 1026.2mb - 13f
7:06am  -  mph 1026.1mb - 13f
7:00am 16 23 mph 1026.1mb 29f 13f
6:54am 18 23 mph 1026mb 29f 13f
6:48am 15 22 mph - 29f -
6:42am 17 22 mph - 29f -
6:36am 14 21 mph - 29f -
6:30am 15 23 mph 1025.6mb 29f -
6:24am 18 22 mph 1025.3mb 29f -
6:18am  -  mph 1025.2mb 29f 13f
6:12am  -  mph 1025.1mb 29f 13f
6:06am  -  mph 1024.9mb 29f 12f
6:00am  -  mph 1024.9mb 29f 12f
5:54am  -  mph 1024.8mb 29f 12f
5:48am 13 18 mph - - -
5:42am 13 20 mph - - -
5:36am 15 20 mph - - -
5:30am  -  mph 1024.5mb 29f -
5:24am  -  mph 1024.2mb 29f -
5:18am 15 20 mph - 29f 13f
5:12am 15 23 mph - 29f 13f
5:06am 16 22 mph - 29f 13f
5:00am 18 24 mph 1023.9mb 29f -
4:54am 14 22 mph 1023.8mb 29f -
4:48am  -  mph 1023.6mb 29f -
4:42am  -  mph 1023.6mb 29f -
4:36am  -  mph 1023.5mb 29f -
4:30am 16 22 mph 1023.4mb - 14f
4:24am 15 18 mph 1023.3mb - 13f
4:18am  -  mph - - 13f
4:12am  -  mph - - 14f
4:06am  -  mph - - 14f
4:00am  -  mph 1022.8mb 29f 14f
3:54am  -  mph 1022.7mb 29f 14f
3:48am  -  mph 1022.5mb 29f 15f
3:42am 16 22 mph 1022.3mb - 15f
3:36am 16 20 mph 1022.2mb - 15f
3:30am 15 18 mph 1022mb - 14f
3:24am 17 21 mph 1021.9mb - 15f
3:18am  -  mph - 29f 15f
3:12am  -  mph - 29f 15f
3:06am  -  mph - 29f 15f
3:00am 21 25 mph 1021.7mb - 15f
2:48am 20 24 mph 1021.4mb 29f 15f
2:42am 20 26 mph 1021.4mb 29f 15f
2:36am 21 25 mph 1021.3mb 29f 16f
2:30am 22 26 mph 1021mb - 15f
2:24am 15 18 mph 1020.9mb - 15f
2:18am  -  mph - - 15f
2:12am  -  mph - - 16f
2:00am 16 22 mph - - -
1:54am 18 23 mph - - -
1:30am 22 31 mph 1020.3mb - 17f
1:24am 22 29 mph 1020.2mb - 17f
1:06am 21 26 mph 1019.7mb - 18f
1:00am 23 29 mph - - 17f
12:54am  -  mph - 29f 18f
12:48am  -  mph - 29f 18f
12:36am  -  mph - 29f 18f
12:30am  -  mph 1018.9mb - -
12:24am  -  mph 1018.8mb - -
12:18am  -  mph 1018.7mb 29f 18f
12:12am  -  mph 1018.6mb 29f 19f
12:06am  -  mph 1018.5mb 29f 19f
12:00am  -  mph 1018.4mb - -
Mon 03/02 11:54pm  -  mph 1018.3mb - -
11:48pm  -  mph - 29f 20f
11:42pm  -  mph - 29f 20f
11:24pm  -  mph - 29f 20f
11:18pm  -  mph 1017.6mb 29f 21f
11:12pm  -  mph 1017.5mb 29f 21f
11:06pm  -  mph 1017.3mb - 21f
11:00pm  -  mph 1017.3mb - 22f
10:54pm 38 45 mph 1017.1mb 30f 22f
10:48pm 30 38 mph 1016.8mb 30f 22f
10:42pm  -  mph - 30f -
10:36pm  -  mph - 30f -
10:30pm 32 41 mph 1016.4mb - 22f
10:24pm 32 43 mph 1016.2mb - 23f
10:18pm  -  mph - 30f -
10:12pm  -  mph - 30f -
10:06pm  -  mph - 30f -
10:00pm  -  mph 1015.8mb 30f 24f
9:54pm  -  mph 1015.7mb 30f 24f
9:48pm 24 30 mph - 30f -
9:42pm 28 33 mph - 30f -
9:36pm 30 34 mph - 30f -
9:30pm  -  mph - 30f -
9:24pm  -  mph - 30f -
9:18pm  -  mph - 30f -
9:12pm  -  mph - 30f -
9:06pm  -  mph - 30f -
9:00pm 22 29 mph 1014.7mb 30f 25f
8:54pm 26 31 mph 1014.6mb 30f 25f
8:48pm  -  mph - 30f 25f
8:42pm  -  mph - 30f 25f
8:36pm  -  mph - 30f 25f
8:30pm  -  mph - 30f 26f
8:24pm  -  mph - 30f 26f
8:18pm  -  mph 1013.8mb 30f 26f
8:12pm  -  mph 1013.8mb 30f 26f
8:06pm  -  mph 1013.7mb 30f 26f
8:00pm 21 32 mph 1013.6mb 30f -
7:54pm 25 31 mph 1013.5mb 30f -
7:48pm 23 29 mph - 30f -
7:42pm 28 34 mph - 30f -
7:36pm 33 41 mph - 30f -
7:30pm  -  mph 1013.2mb 30f -
7:24pm  -  mph 1013.1mb 30f -
7:18pm  -  mph 1012.9mb - 27f
7:12pm  -  mph 1012.9mb - 27f
7:06pm  -  mph 1012.8mb - 27f
7:00pm 22 30 mph - 31f -
6:54pm 25 37 mph - 31f -
6:48pm 28 33 mph - 31f -
6:42pm 24 29 mph - 31f -
6:36pm 25 30 mph - 31f -
6:30pm 28 36 mph - 31f 28f
6:24pm 25 32 mph - 31f 28f
6:18pm 28 39 mph 1011.8mb 31f 28f
6:12pm 28 34 mph 1011.6mb 31f 28f
6:06pm 21 30 mph 1011.4mb 31f 28f
6:00pm 17 31 mph 1011.2mb 31f 28f
5:54pm 18 24 mph 1011mb 31f 28f
5:48pm 16 23 mph 1010.8mb 31f 28f
5:42pm 15 20 mph 1010.7mb 31f 28f
5:36pm 15 20 mph 1010.6mb 31f 28f
5:30pm 16 22 mph 1010.4mb 31f 28f
5:24pm 18 22 mph 1010.2mb 31f 28f
5:18pm 20 25 mph 1010.1mb 31f 28f
5:12pm 23 31 mph 1009.9mb 31f 28f
5:06pm 22 29 mph 1009.7mb 31f 28f
5:00pm 23 31 mph 1009.6mb 31f 28f
4:54pm 28 37 mph 1009.5mb 31f 29f
4:48pm 25 29 mph 1009.4mb 31f 29f
4:42pm 22 29 mph 1009.2mb 31f 29f
4:36pm 24 31 mph 1009.2mb 31f 29f
4:30pm 24 29 mph 1009.1mb 31f 29f
4:24pm 24 33 mph 1009.1mb 31f 29f
4:18pm 25 34 mph 1009mb 31f 29f
4:12pm 25 30 mph 1008.8mb 31f 29f
4:06pm 25 33 mph 1008.7mb 31f 30f
4:00pm 25 32 mph 1008.6mb 31f 30f
3:54pm 28 36 mph 1008.5mb 31f 30f
3:48pm 29 33 mph 1008.4mb 31f 30f
3:42pm 22 32 mph 1008.4mb 31f 30f
3:36pm 24 30 mph 1008.3mb 31f 30f
3:30pm 23 30 mph 1008.3mb 31f 30f
3:24pm 28 36 mph 1008.2mb 31f 30f
3:18pm 30 38 mph 1008mb 31f 30f
3:12pm 25 30 mph 1007.9mb 31f 30f
3:06pm 25 33 mph 1007.9mb 31f 30f
3:00pm 25 30 mph 1007.9mb 31f 30f
2:54pm 25 31 mph 1007.9mb 31f 30f
2:48pm 24 30 mph 1007.9mb 31f 30f
2:42pm 22 31 mph 1007.7mb 31f 30f
2:36pm 23 29 mph 1007.6mb 31f 30f
2:30pm 25 31 mph 1007.6mb 31f 30f
2:24pm 25 29 mph 1007.5mb 31f 30f
2:18pm 20 26 mph 1007.4mb 31f 30f
2:12pm 23 28 mph 1007.4mb 31f 30f
2:06pm 23 30 mph 1007.4mb 31f 30f
2:00pm 22 25 mph 1007.5mb 31f 30f
1:54pm 16 23 mph 1007.4mb 31f 30f
1:48pm 20 23 mph 1007.5mb 31f 30f
1:42pm 17 24 mph 1007.4mb 31f 30f
1:36pm 21 24 mph 1007.3mb 31f 29f
1:30pm 20 25 mph 1007.4mb 31f 29f
1:24pm 18 24 mph 1007.4mb 31f 29f
1:18pm 20 25 mph 1007.5mb 30f 29f
1:12pm 20 29 mph 1007.5mb 30f 29f
1:06pm 22 28 mph 1007.5mb 30f 29f
1:00pm 20 25 mph 1007.5mb 30f 29f
12:54pm 16 24 mph 1007.6mb 30f 29f
12:48pm 16 23 mph 1007.6mb 30f 29f
12:42pm 18 22 mph 1007.6mb 30f 29f
12:36pm 17 22 mph 1007.7mb 30f 28f
12:30pm 20 25 mph 1007.8mb 30f 28f
12:24pm 18 23 mph 1007.9mb 30f 28f
12:18pm 16 18 mph 1007.9mb 30f 28f
12:12pm 16 21 mph 1008mb 30f 28f
12:06pm 17 20 mph 1008.1mb 30f 28f
12:00pm 11 20 mph 1008.1mb 30f 28f
11:54am 14 18 mph 1008.2mb 30f 28f
11:48am 17 20 mph 1008.3mb 30f 28f